Location: Unspecified
(0.0000°N, 0.0000°E)
Time: 09:31:14
(UTC+00:00)

A-11 Canister half - Pass Details

Date: 02 August 2021
Orbit: 1515 x 1685 km, 47.2° (Epoch: 27 September)

Event Time Altitude Azimuth Distance (km) Brightness Sun altitude
Rises 03:24:10 0° 289° (WNW) 4,899 - -38.3°
Reaches altitude 10° 03:28:19 10° 275° (W) 3,891 - -37.3°
Maximum altitude 03:35:28 22° 228° (SW) 2,986 - -35.6°
Drops below altitude 10° 03:42:32 10° 181° (S) 3,800 - -34.0°
Exits shadow 03:43:47 - 175° (S) 4,073 11.1 -33.7°
Sets 03:46:35 0° 166° (SSE) 4,756 11.5 -33.1°
